RYR7MD LEPA-LEBL

Flight info

Callsign RYR7MD
Flight time N/A
Altitude 18000
Route ESPOR L2 NEPAL
Aircraft B738/M-SDE2E3FGHIRWXY/LB1

Departure

Time 2026-05-06 19:54
Airport Palma de Mallorca Airport (LEPA)

Arrival

Time N/A
Airport Josep Tarradellas Barcelona-El Prat Airport (LEBL)
Time Latitude Longitude Altitude Speed Heading
2026-05-06 19:16 39.55026 2.73492 29 ft 0 kts 161°
2026-05-06 19:41 39.55036 2.73487 29 ft 2 kts 163°
2026-05-06 19:41 39.55052 2.73482 29 ft 2 kts 165°
2026-05-06 19:41 39.55067 2.73472 29 ft 2 kts 96°
2026-05-06 19:42 39.55064 2.73451 29 ft 2 kts 69°
2026-05-06 19:42 39.55057 2.73432 29 ft 2 kts 59°
2026-05-06 19:42 39.55049 2.73415 29 ft 1 kts 59°
2026-05-06 19:42 39.55048 2.73412 29 ft 0 kts 59°
2026-05-06 19:43 39.55048 2.73413 29 ft 0 kts 59°
2026-05-06 19:47 39.55068 2.73455 29 ft 14 kts 59°
2026-05-06 19:47 39.55114 2.73551 29 ft 21 kts 59°
2026-05-06 19:47 39.55184 2.73707 29 ft 12 kts 75°
2026-05-06 19:48 39.55172 2.73776 29 ft 12 kts 85°
2026-05-06 19:48 39.55155 2.73867 29 ft 12 kts 144°
2026-05-06 19:48 39.55087 2.73924 29 ft 12 kts 148°
2026-05-06 19:48 39.55019 2.73978 29 ft 11 kts 148°
2026-05-06 19:49 39.54953 2.74029 29 ft 11 kts 149°
2026-05-06 19:49 39.54888 2.74079 29 ft 11 kts 149°
2026-05-06 19:49 39.54825 2.74126 29 ft 10 kts 163°
2026-05-06 19:49 39.54769 2.74081 29 ft 10 kts 234°
2026-05-06 19:50 39.54732 2.74006 29 ft 10 kts 239°
2026-05-06 19:50 39.54697 2.73931 29 ft 10 kts 238°
2026-05-06 19:50 39.54663 2.73859 29 ft 9 kts 239°
2026-05-06 19:50 39.54630 2.73788 29 ft 9 kts 239°
2026-05-06 19:51 39.54598 2.73719 29 ft 9 kts 239°
2026-05-06 19:51 39.54549 2.73683 29 ft 9 kts 171°
2026-05-06 19:51 39.54498 2.73717 29 ft 7 kts 148°
2026-05-06 19:51 39.54490 2.73724 29 ft 0 kts 149°
2026-05-06 19:52 39.54481 2.73731 29 ft 8 kts 149°
2026-05-06 19:53 39.54432 2.73793 29 ft 11 kts 96°
2026-05-06 19:53 39.54446 2.73843 29 ft 0 kts 60°
2026-05-06 19:53 39.54468 2.73890 29 ft 32 kts 58°
2026-05-06 19:54 39.54738 2.74461 29 ft 115 kts 58°
2026-05-06 19:54 39.55282 2.75594 50 ft 179 kts 58°
2026-05-06 19:54 39.55948 2.76965 1036 ft 170 kts 58°
2026-05-06 19:54 39.56539 2.78191 2226 ft 161 kts 59°
2026-05-06 19:55 39.57142 2.79470 2950 ft 169 kts 60°
2026-05-06 19:55 39.57762 2.80815 3660 ft 181 kts 60°
2026-05-06 19:55 39.58453 2.82340 4113 ft 207 kts 60°
2026-05-06 19:55 39.59217 2.83994 4553 ft 222 kts 59°
2026-05-06 19:56 39.60020 2.85696 5292 ft 222 kts 59°
2026-05-06 19:56 39.60868 2.87461 5843 ft 239 kts 58°
2026-05-06 19:56 39.61773 2.89346 6428 ft 252 kts 58°
2026-05-06 19:56 39.62708 2.91178 7687 ft 233 kts 47°
2026-05-06 19:57 39.64057 2.92307 8366 ft 242 kts 11°
2026-05-06 19:57 39.65708 2.92155 9171 ft 239 kts 333°
2026-05-06 19:57 39.66925 2.90757 9906 ft 241 kts 295°
2026-05-06 19:57 39.67245 2.88649 10691 ft 237 kts 270°
2026-05-06 19:58 39.67309 2.86506 11529 ft 238 kts 277°
2026-05-06 19:58 39.67644 2.84380 12244 ft 242 kts 282°
2026-05-06 19:58 39.68004 2.82299 13187 ft 236 kts 279°
2026-05-06 19:58 39.68285 2.80166 13836 ft 244 kts 276°
2026-05-06 19:59 39.68486 2.77940 14386 ft 252 kts 272°
2026-05-06 19:59 39.68557 2.75687 15281 ft 244 kts 269°
2026-05-06 19:59 39.68682 2.73479 15791 ft 259 kts 285°
2026-05-06 19:59 39.69687 2.71433 16019 ft 285 kts 311°
2026-05-06 20:00 39.70980 2.69410 16454 ft 296 kts 295°
2026-05-06 20:00 39.71741 2.66907 16924 ft 303 kts 285°
2026-05-06 20:00 39.72419 2.64304 17612 ft 310 kts 287°
2026-05-06 20:00 39.73197 2.61646 17692 ft 318 kts 289°
2026-05-06 20:01 39.74038 2.58972 17838 ft 318 kts 290°
2026-05-06 20:01 39.74894 2.56343 17946 ft 319 kts 290°
2026-05-06 20:01 39.75780 2.53659 17958 ft 320 kts 290°
2026-05-06 20:01 39.76652 2.51031 17955 ft 320 kts 291°
2026-05-06 20:02 39.77538 2.48368 17957 ft 319 kts 291°
2026-05-06 20:02 39.78414 2.45733 17959 ft 319 kts 291°
2026-05-06 20:02 39.79303 2.43061 17963 ft 319 kts 290°
2026-05-06 20:02 39.80176 2.40431 17960 ft 319 kts 290°
2026-05-06 20:03 39.81052 2.37789 17967 ft 319 kts 290°
2026-05-06 20:03 39.81950 2.35125 17960 ft 320 kts 295°
2026-05-06 20:03 39.83295 2.32821 17967 ft 326 kts 313°
2026-05-06 20:03 39.85212 2.31162 17955 ft 333 kts 332°
2026-05-06 20:04 39.87350 2.30020 17966 ft 335 kts 334°
2026-05-06 20:04 39.89523 2.28953 17969 ft 336 kts 335°
2026-05-06 20:04 39.91135 2.28176 17965 ft 336 kts 335°
2026-05-06 20:04 39.91236 2.28127 17964 ft 336 kts 335°
2026-05-06 20:05 39.93447 2.27057 17963 ft 336 kts 335°
2026-05-06 20:05 39.95626 2.25991 17964 ft 336 kts 335°
2026-05-06 20:05 39.97828 2.24903 17966 ft 336 kts 334°
2026-05-06 20:05 40.00004 2.23820 17968 ft 336 kts 334°
2026-05-06 20:06 40.02170 2.22738 17965 ft 336 kts 334°
2026-05-06 20:06 40.04373 2.21633 17964 ft 335 kts 334°
2026-05-06 20:06 40.06541 2.20544 17965 ft 335 kts 334°
2026-05-06 20:06 40.08710 2.19452 17964 ft 335 kts 334°
2026-05-06 20:07 40.10885 2.18359 17960 ft 328 kts 334°
2026-05-06 20:07 40.12956 2.17318 17952 ft 318 kts 334°
2026-05-06 20:07 40.15014 2.16281 17958 ft 314 kts 334°
2026-05-06 20:07 40.17058 2.15248 17968 ft 314 kts 334°
2026-05-06 20:08 40.19085 2.14222 17977 ft 315 kts 334°
2026-05-06 20:08 40.21124 2.13192 17966 ft 307 kts 334°
2026-05-06 20:08 40.23056 2.12218 17948 ft 294 kts 334°
2026-05-06 20:08 40.24929 2.11273 17951 ft 281 kts 333°
2026-05-06 20:09 40.26730 2.10364 17937 ft 268 kts 333°
2026-05-06 20:09 40.28423 2.09510 17943 ft 258 kts 334°
2026-05-06 20:09 40.30122 2.08751 17954 ft 257 kts 336°
2026-05-06 20:09 40.31854 2.08034 17979 ft 267 kts 337°
2026-05-06 20:10 40.33640 2.07303 17980 ft 272 kts 337°
2026-05-06 20:10 40.35444 2.06568 17970 ft 269 kts 337°
2026-05-06 20:10 40.37221 2.05841 17950 ft 267 kts 337°
2026-05-06 20:10 40.38980 2.05119 17949 ft 265 kts 337°
2026-05-06 20:11 40.40719 2.04401 17956 ft 263 kts 337°
2026-05-06 20:11 40.42474 2.03675 17970 ft 262 kts 337°
2026-05-06 20:11 40.44199 2.02959 17964 ft 262 kts 337°
2026-05-06 20:11 40.45936 2.02236 17973 ft 263 kts 337°
2026-05-06 20:12 40.47697 2.01503 17970 ft 264 kts 337°
2026-05-06 20:12 40.49442 2.00775 17972 ft 266 kts 337°
2026-05-06 20:12 40.51227 2.00031 17973 ft 268 kts 337°
2026-05-06 20:12 40.52999 1.99291 17968 ft 270 kts 337°
2026-05-06 20:13 40.54778 1.98549 17970 ft 271 kts 337°
2026-05-06 20:13 40.56594 1.97791 17966 ft 272 kts 337°
2026-05-06 20:13 40.58396 1.97038 17964 ft 272 kts 337°
2026-05-06 20:13 40.60190 1.96289 17958 ft 272 kts 337°
2026-05-06 20:14 40.61997 1.95533 17964 ft 271 kts 337°
2026-05-06 20:14 40.63804 1.94775 17988 ft 282 kts 337°
2026-05-06 20:14 40.65738 1.93959 18118 ft 302 kts 337°
2026-05-06 20:14 40.67828 1.93138 18324 ft 321 kts 345°
2026-05-06 20:15 40.70132 1.93234 18531 ft 347 kts 11°
2026-05-06 20:15 40.72384 1.94494 18814 ft 362 kts 24°
2026-05-06 20:15 40.74626 1.96104 19126 ft 365 kts 26°
2026-05-06 20:15 40.76845 1.97763 19442 ft 365 kts 26°
2026-05-06 20:16 40.79040 1.99397 19744 ft 366 kts 25°
2026-05-06 20:16 40.81256 2.01023 20054 ft 367 kts 25°
2026-05-06 20:16 40.83517 2.02662 20367 ft 369 kts 25°
2026-05-06 20:16 40.85736 2.04263 20655 ft 357 kts 24°
2026-05-06 20:17 40.87877 2.05805 20860 ft 339 kts 24°
2026-05-06 20:17 40.89877 2.07245 20957 ft 322 kts 24°
2026-05-06 20:17 40.91820 2.08643 20983 ft 309 kts 23°
2026-05-06 20:17 40.93658 2.09993 20932 ft 298 kts 24°
2026-05-06 20:18 40.95417 2.11313 20827 ft 289 kts 24°
2026-05-06 20:18 40.97144 2.12616 20675 ft 284 kts 24°
2026-05-06 20:18 40.98865 2.13913 20511 ft 282 kts 24°
2026-05-06 20:18 41.00566 2.15194 20343 ft 280 kts 24°
2026-05-06 20:19 41.02243 2.16456 20094 ft 282 kts 24°
2026-05-06 20:19 41.04004 2.17776 19602 ft 297 kts 25°
2026-05-06 20:19 41.05824 2.19144 19153 ft 307 kts 25°
2026-05-06 20:19 41.07721 2.20574 18701 ft 314 kts 25°
2026-05-06 20:20 41.09631 2.22017 18087 ft 324 kts 26°
2026-05-06 20:20 41.11604 2.23510 17635 ft 326 kts 26°
2026-05-06 20:20 41.13560 2.24990 17309 ft 324 kts 26°
2026-05-06 20:20 41.15501 2.26460 17022 ft 321 kts 26°
2026-05-06 20:21 41.17400 2.28011 16708 ft 321 kts 37°
2026-05-06 20:21 41.18856 2.30275 16382 ft 322 kts 55°
2026-05-06 20:21 41.20068 2.32790 15667 ft 333 kts 56°
2026-05-06 20:21 41.21338 2.35440 14796 ft 349 kts 56°
2026-05-06 20:22 41.22834 2.38057 13949 ft 359 kts 39°
2026-05-06 20:22 41.24942 2.39702 13783 ft 343 kts 16°
2026-05-06 20:22 41.27204 2.40192 13691 ft 326 kts 356°
2026-05-06 20:22 41.29397 2.39767 13212 ft 319 kts 340°
2026-05-06 20:23 41.31521 2.38577 12139 ft 337 kts 333°
2026-05-06 20:23 41.33570 2.36997 11186 ft 348 kts 322°
2026-05-06 20:23 41.35546 2.35047 10255 ft 357 kts 322°
2026-05-06 20:23 41.37495 2.32985 9319 ft 364 kts 312°
2026-05-06 20:24 41.38686 2.30155 9022 ft 339 kts 283°
2026-05-06 20:24 41.38722 2.27169 8633 ft 321 kts 258°